Location: ????????
(60.5616°N, 46.8254°E)
Time: 00:12:15
(UTC+00:00)

Resurs 01 Rocket - Pass Details

Date: 18 February 2020
Orbit: 634 x 644 km, 98.0° (Epoch: 09 April)

Event Time Altitude Azimuth Distance (km) Brightness Sun altitude
Exits shadow 15:41:10 24° 90° (E) 1,358 2.7 -14.4°
Maximum altitude 15:42:44 30° 56° (NE) 1,173 2.5 -14.6°
Drops below altitude 10° 15:46:36 10° 356° (N) 2,052 4.3 -15.0°
Sets 15:49:01 0° 345° (NNW) 2,964 5.3 -15.3°
